www.pogodaiklimat.ru
ПОГОДА в Ред-Блаффе
Время
и дата
08:54 19.07
09:54 19.07
10:54 19.07
11:54 19.07
12:54 19.07
13:54 19.07
14:54 19.07
15:54 19.07
16:54 19.07
17:54 19.07
18:54 19.07
19:54 19.07
20:54 19.07
21:54 19.07
22:54 19.07
23:54 19.07
00:54 20.07
01:54 20.07
02:54 20.07
03:54 20.07
04:54 20.07
05:54 20.07
06:54 20.07
07:54 20.07
08:54 20.07
09:54 20.07
10:54 20.07
11:54 20.07
12:54 20.07
13:54 20.07
14:54 20.07
15:54 20.07
16:54 20.07
17:54 20.07
18:54 20.07
19:54 20.07
20:54 20.07
21:54 20.07
22:54 20.07
23:54 20.07
00:54 21.07
01:54 21.07
02:54 21.07
03:54 21.07
04:54 21.07
05:54 21.07
06:54 21.07
07:54 21.07
Ветер
(напр.,м/с)
Видим. Явления Облачность Т
(С)
Тd
(С)
f
(%)
Тe
(С)
Тes
(С)
Комфортность P
(гПа)
Po
(гПа)
Тmin
(С)
Tmax
(С)
R
(мм)
R24
(мм)
S
(см)
С 5 16 км ясно +34.4 +7.2 19 +33 +36 жарко 1014.5 1002.1
С 5 16 км ясно +37.2 +8.3 17 +35 +41 очень
жарко
1013.9 1001.8 +22.8 +37.2
С 7 16 км ясно +38.9 +7.8 15 +37 +41 очень
жарко
1013.3 1001.1
СЗ 5
{10}
16 км ясно +40.0 +2.8 10 +37 +46 очень
жарко
1012.7 1000.4
С 4
{8}
16 км ясно +41.1 +3.3 10 +38 +51 опасность
солнечного
удара
1012.2 1000.1
С 4 16 км ясно +42.2 +3.3 9 +39 +52 опасность
солнечного
удара
1011.5 999.4
С 3 16 км ясно +42.8 +2.2 8 +39 +53 опасность
солнечного
удара
1010.8 998.7
С 4 16 км ясно +43.9 +1.1 7 +40 +49 очень
жарко
1010.2 998.1 +37.2 +43.9
СЗ 3 16 км ясно +43.3 -0.6 7 +40 +46 очень
жарко
1009.7 997.4
штиль 0 16 км ясно +43.3 +0.6 7 +40 +45 очень
жарко
1009.6 997.4
штиль 0 16 км ясно +40.6 +3.3 10 +37 +39 очень
жарко
1009.7 997.4
СЗ 2 16 км ясно +36.7 +3.3 13 +34 +34 очень
жарко
1010.1 997.7
СЗ 3 16 км ясно +32.8 +4.4 17 +30 +30 жарко 1010.5 998.4
СВ 4 16 км ясно +32.8 +5.0 18 +31 +31 жарко 1010.8 998.7 +32.2 +44.4
С 4 16 км ясно +30.0 +4.4 20 +28 +28 жарко 1011.1 999.1
СЗ 3 16 км ясно +28.9 +4.4 21 +27 +27 жарко 1011.1 999.1
С 3 16 км ясно +26.7 +4.4 24 +26 +26 жарко 1011.2 999.1
штиль 0 16 км ясно +25.0 +5.0 28 +25 +25 комфорт 1011.1 998.7
С 2 16 км ясно +22.2 +6.7 37 +23 +23 комфорт 1010.8 998.7
СЗ 2 16 км ясно +21.1 +6.7 39 +22 +22 комфорт 1010.8 998.4 +21.1 +32.8
СЗ 3 16 км ясно +21.1 +6.1 38 +22 +22 комфорт 1010.7 998.4
С 2 16 км ясно +24.4 +6.7 32 +24 +24 комфорт 1010.9 998.7
С 3 16 км ясно +27.8 +8.3 29 +28 +28 жарко 1011.1 999.1
СВ 2 16 км ясно +31.7 +8.9 24 +31 +34 жарко 1011.2 999.1
СВ 2 16 км ясно +34.4 +9.4 22 +33 +40 жарко 1010.9 998.7
СВ 4 16 км ясно +37.2 +9.4 19 +36 +43 очень
жарко
1010.4 998.4 +21.1 +37.2
16 км ясно +40.0 +9.4 16 +38 +59 опасность
солнечного
удара
1010.1 998.1
ЮВ 6 16 км ясно +37.8 +10.0 19 +37 +44 очень
жарко
1009.9 997.7
ЮВ 6 16 км ясно +38.9 +10.0 18 +38 +45 очень
жарко
1009.5 997.4
ЮВ 6 16 км ясно +40.0 +11.7 19 +39 +47 очень
жарко
1009.1 996.7
Ю 6 16 км ясно +40.0 +8.9 15 +38 +44 очень
жарко
1008.5 996.4
ЮВ 6 16 км ясно +40.6 +9.4 15 +39 +44 очень
жарко
1007.9 995.7 +37.2 +40.6
Ю 6 16 км ясно +40.0 +10.6 17 +39 +42 очень
жарко
1007.4 995.4
ЮВ 5 16 км ясно +38.9 +15.6 25 +40 +42 очень
душно
1007.5 995.4
Ю 4 16 км ясно +36.7 +16.1 30 +39 +40 очень
душно
1008.0 995.7
Ю 3 16 км ясно +33.9 +15.0 32 +36 +36 душно 1008.4 996.4
СВ 2 16 км ясно +32.2 +15.6 37 +35 +35 очень
душно
1009.0 996.7
штиль 0 16 км ясно +30.6 +16.7 43 +34 +34 очень
душно
1009.2 997.1 +30.6 +40.6
СЗ 2 16 км ясно +28.9 +16.1 46 +32 +32 душно 1009.4 997.4
З 3 16 км ясно +27.8 +15.6 47 +31 +31 душно 1009.5 997.4
Ю 5 16 км ясно +28.9 +15.0 43 +31 +31 жарко 1010.1 997.7
Ю 2 16 км ясно +27.2 +14.4 45 +29 +29 жарко 1010.2 998.1
ЮВ 2 16 км ясно +26.7 +15.0 49 +29 +29 жарко 1010.2 998.1
В 2 16 км ясно +25.6 +15.0 52 +28 +28 жарко 1010.3 998.1 +24.4 +31.1
штиль 0 16 км ясно +22.8 +15.0 61 +27 +27 душно 1010.6 998.4
Ю 2 16 км ясно +25.0 +14.4 52 +28 +28 жарко 1010.9 998.7
Ю 3 16 км ясно +26.1 +13.9 47 +28 +29 жарко 1011.5 999.4
ЮВ 3 16 км ясно +27.2 +13.9 44 +29 +32 жарко 1011.7 999.4
Местоположение метеостанции Red Bluff Municipal Airport: широта 40.1506 долгота -122.2522 высота над уровнем моря 106 м.
В архиве по умолчанию представлена погода в Ред-Блаффе за последние 1-2 суток. Обновление информации о фактической погоде в базе происходит ежечасно! Архивные данные за месяц целиком и за предыдущие месяцы Вы можете получить, выбрав интересующий диапазон дат из раскрывающегося списка и нажав кнопку "Ввод!".
Внимание! Архив погоды МЕТАР в базе сайта по станциям, не включенным в климатический монитор, хранится не более 60 дней. Нет смысла пытаться выбрать более раннюю дату.
*Определитесь, кто Вы:
Внимание! Время в таблицах - местное (без учета летнего времени). Для получения всемирного времени необходимо вычесть поправку, которая равна -8 ч.
Смотрите также архив погоды в соседних городах и на ближайших метеорологических станциях:
Партнеры нашего сайта:      
Пояснения к столбцам:
  • Ветер - указаны скорость ветра в м/с - средняя за 10 мин, порывы в срок и между сроками (в фигурных скобках) и направление, откуда дует ветер: С - северный,
  • СВ - северо-восточный, В - восточный, ЮВ - юго-восточный, Ю - южный, ЮЗ - юго-западный, З - западный, СЗ - северо-западный.
  • Видимость - горизонтальная дальность видимости в метрах или километрах. При видимости от 1 до 10 км при отсутствии осадков обычно наблюдается дымка, при ухудшении видимости до 1 км и менее - туман. В сухую погоду видимость может ухудшаться дымом, пылью или мглою.
  • Явления - указаны атмосферные явления, наблюдавшиеся в срок или в последний час перед сроком; фигурными скобками обозначены явления, наблюдавшиеся между сроками (за 1-3 часа до срока); квадратными скобками обозначены град или гололедные отложения с указанием их диаметра в мм.
  • Облачность - указаны через наклонную черту общая и нижняя облачность в баллах и высота нижней границы облаков в метрах; квадратными скобками обозначены формы облаков: Ci - перистые, Cs - перисто-слоистые, Cc - перисто-кучевые, Ac - высококучевые, As - высокослоистые, Sc - слоисто-кучевые, Ns - слоисто-дождевые, Cu - кучевые, Cb - кучево-дождевые. Подробнее классификацию облаков см. в Атласе облаков (PDF).
  • T - Температура воздуха - температура, измеренная на высоте 2 м над землей.
  • Td - Температура точки росы - температура, при понижении до которой содержащийся в воздухе водяной пар достигнет насыщения.
  • f - Относительная влажность воздуха - влажноcть воздуха, измеренная на высоте 2 м над землей.
  • Te - Эффективная температура - температура, которую ощущает одетый по сезону человек в тени. Характеристика душности погоды. При расчете учитывается влияние влажности воздуха и скорости ветра на теплоощущения человека.
  • Tes - Эффективная температура на солнце - температура, которую ощущает человек, с поправкой на солнечный нагрев. Характеристика знойности погоды. Зависит от высоты солнца над горизонтом, облачности и скорости ветра. Ночью, в пасмурную погоду, а также при ветре 12 м/с и более поправка равна нулю.
  • P - Атмосферное давление - приведенное к уровню моря атмосферное давление.
  • Po - Атмосферное давление - измеренное на уровне метеостанции атмосферное давление.
  • Tmin - Минимальная температура - минимум температуры воздуха на высоте 2 м над землей.
  • Tmax - Максимальная температура - максимум температуры воздуха на высоте 2 м над землей.
  • R - Количество осадков - Количество выпавших осадков за период времени, мм. При наведении курсора мыши на число - период времени, за который выпало указанное количество осадков.
  • R24 - Количество осадков - Количество выпавших осадков за 24 часа, мм.
  • S - Снежный покров - Высота снежного покрова, см. При наведении курсора мыши на число - состояние снежного покрова и степень покрытия местности в баллах.